owner,sensor,date,latitude,longitude,vertical_datum,mass_concentration_of_oxygen_in_sea_water,qcFlag 
SCCF RECON,ioos:station:SCCF:53:1,2011-09-01T00:00:00Z,26.6493,-81.8810,2.48,5.61,1111122 
SCCF RECON,ioos:station:SCCF:53:1,2011-09-01T01:00:00Z,26.6493,-81.8810,2.43,5.44,1111122 
SCCF RECON,ioos:station:SCCF:53:1,2011-09-01T02:00:00Z,26.6493,-81.8810,2.38,5.36,1111122 
SCCF RECON,ioos:station:SCCF:53:1,2011-09-01T03:00:00Z,26.6493,-81.8810,2.33,5.4,1111122 
SCCF RECON,ioos:station:SCCF:53:1,2011-09-01T04:00:00Z,26.6493,-81.8810,2.28,5.43,1111122 
SCCF RECON,ioos:station:SCCF:53:1,2011-09-01T05:00:00Z,26.6493,-81.8810,2.26,5.39,1111122 
SCCF RECON,ioos:station:SCCF:53:1,2011-09-01T06:00:00Z,26.6493,-81.8810,2.332,5.4,1111122 
SCCF RECON,ioos:station:SCCF:53:1,2011-09-01T07:00:00Z,26.6493,-81.8810,2.39,5.28,1111122 
SCCF RECON,ioos:station:SCCF:53:1,2011-09-01T08:00:00Z,26.6493,-81.8810,2.45,5.34,1111122 
SCCF RECON,ioos:station:SCCF:53:1,2011-09-01T09:00:00Z,26.6493,-81.8810,2.52,5.39,1111122 
SCCF RECON,ioos:station:SCCF:53:1,2011-09-01T10:00:00Z,26.6493,-81.8810,2.56,5.5,1111122 
SCCF RECON,ioos:station:SCCF:53:1,2011-09-01T11:00:00Z,26.6493,-81.8810,2.54,5.54,1111122 
SCCF RECON,ioos:station:SCCF:53:1,2011-09-01T12:00:00Z,26.6493,-81.8810,2.49,5.5,1111122 
SCCF RECON,ioos:station:SCCF:53:1,2011-09-01T13:00:00Z,26.6493,-81.8810,2.43,5.35,1111122 
SCCF RECON,ioos:station:SCCF:53:1,2011-09-01T14:00:00Z,26.6493,-81.8810,2.38,5.24,1111122 
SCCF RECON,ioos:station:SCCF:53:1,2011-09-01T15:00:00Z,26.6493,-81.8810,2.322,5.38,1111122 
SCCF RECON,ioos:station:SCCF:53:1,2011-09-01T16:00:00Z,26.6493,-81.8810,2.26,5.53,1111122 
SCCF RECON,ioos:station:SCCF:53:1,2011-09-01T17:00:00Z,26.6493,-81.8810,2.21,5.49,1111122 
SCCF RECON,ioos:station:SCCF:53:1,2011-09-01T19:00:00Z,26.6493,-81.8810,2.2,5.44,1111122 
SCCF RECON,ioos:station:SCCF:53:1,2011-09-01T20:00:00Z,26.6493,-81.8810,2.25,5.46,1111122 
SCCF RECON,ioos:station:SCCF:53:1,2011-09-01T21:00:00Z,26.6493,-81.8810,2.31,5.34,1111122 
SCCF RECON,ioos:station:SCCF:53:1,2011-09-01T22:00:00Z,26.6493,-81.8810,2.377,5.29,1111122 
SCCF RECON,ioos:station:SCCF:53:1,2011-09-01T23:00:00Z,26.6493,-81.8810,2.47,5.59,1111122 
SCCF RECON,ioos:station:SCCF:53:1,2011-09-02T00:00:00Z,26.6493,-81.8810,2.47,5.69,1111122 
SCCF RECON,ioos:station:SCCF:53:1,2011-09-02T01:00:00Z,26.6493,-81.8810,2.42,5.81,1111122 
SCCF RECON,ioos:station:SCCF:53:1,2011-09-02T02:00:00Z,26.6493,-81.8810,2.38,5.79,1111122 
SCCF RECON,ioos:station:SCCF:53:1,2011-09-02T03:00:00Z,26.6493,-81.8810,2.33,5.68,1111122 
SCCF RECON,ioos:station:SCCF:53:1,2011-09-02T04:00:00Z,26.6493,-81.8810,2.28,5.64,1111122 
SCCF RECON,ioos:station:SCCF:53:1,2011-09-02T05:00:00Z,26.6493,-81.8810,2.24,5.8,1111122 
SCCF RECON,ioos:station:SCCF:53:1,2011-09-02T06:00:00Z,26.6493,-81.8810,2.25,5.68,1111122 
SCCF RECON,ioos:station:SCCF:53:1,2011-09-02T07:00:00Z,26.6493,-81.8810,2.33,5.6,1111122 
SCCF RECON,ioos:station:SCCF:53:1,2011-09-02T08:00:00Z,26.6493,-81.8810,2.391,5.68,1111122 
SCCF RECON,ioos:station:SCCF:53:1,2011-09-02T09:00:00Z,26.6493,-81.8810,2.461,5.75,1111122 
SCCF RECON,ioos:station:SCCF:53:1,2011-09-02T10:00:00Z,26.6493,-81.8810,2.53,6.03,1111122 
SCCF RECON,ioos:station:SCCF:53:1,2011-09-02T11:00:00Z,26.6493,-81.8810,2.571,6.15,1111122 
SCCF RECON,ioos:station:SCCF:53:1,2011-09-02T12:00:00Z,26.6493,-81.8810,2.56,5.93,1111122 
SCCF RECON,ioos:station:SCCF:53:1,2011-09-02T13:00:00Z,26.6493,-81.8810,2.482,5.83,1111122 
SCCF RECON,ioos:station:SCCF:53:1,2011-09-02T14:00:00Z,26.6493,-81.8810,2.428,5.64,1111122 
SCCF RECON,ioos:station:SCCF:53:1,2011-09-02T15:00:00Z,26.6493,-81.8810,2.369,5.49,1111122 
SCCF RECON,ioos:station:SCCF:53:1,2011-09-02T16:00:00Z,26.6493,-81.8810,2.308,5.69,1111122 
SCCF RECON,ioos:station:SCCF:53:1,2011-09-02T17:00:00Z,26.6493,-81.8810,2.245,5.66,1111122 
SCCF RECON,ioos:station:SCCF:53:1,2011-09-02T18:00:00Z,26.6493,-81.8810,2.19,5.55,1111122 
SCCF RECON,ioos:station:SCCF:53:1,2011-09-02T19:00:00Z,26.6493,-81.8810,2.179,5.58,1111122 
SCCF RECON,ioos:station:SCCF:53:1,2011-09-02T20:00:00Z,26.6493,-81.8810,2.22,5.49,1111122 
SCCF RECON,ioos:station:SCCF:53:1,2011-09-02T21:00:00Z,26.6493,-81.8810,2.27,5.42,1111122 
SCCF RECON,ioos:station:SCCF:53:1,2011-09-02T22:00:00Z,26.6493,-81.8810,2.33,5.27,1111122 
SCCF RECON,ioos:station:SCCF:53:1,2011-09-02T23:00:00Z,26.6493,-81.8810,2.41,5.43,1111122 
SCCF RECON,ioos:station:SCCF:53:1,2011-09-03T00:00:00Z,26.6493,-81.8810,2.46,5.48,1111122 
SCCF RECON,ioos:station:SCCF:53:1,2011-09-03T01:00:00Z,26.6493,-81.8810,2.48,5.71,1111122 
SCCF RECON,ioos:station:SCCF:53:1,2011-09-03T02:00:00Z,26.6493,-81.8810,2.46,5.84,1111122 
SCCF RECON,ioos:station:SCCF:53:1,2011-09-03T03:00:00Z,26.6493,-81.8810,2.43,5.77,1111122 
SCCF RECON,ioos:station:SCCF:53:1,2011-09-03T04:00:00Z,26.6493,-81.8810,2.39,5.62,1111122 
SCCF RECON,ioos:station:SCCF:53:1,2011-09-03T05:00:00Z,26.6493,-81.8810,2.35,5.53,1111122 
SCCF RECON,ioos:station:SCCF:53:1,2011-09-03T06:00:00Z,26.6493,-81.8810,2.33,5.51,1111122 
SCCF RECON,ioos:station:SCCF:53:1,2011-09-03T07:00:00Z,26.6493,-81.8810,2.379,5.39,1111122 
SCCF RECON,ioos:station:SCCF:53:1,2011-09-03T08:00:00Z,26.6493,-81.8810,2.44,5.53,1111122 
SCCF RECON,ioos:station:SCCF:53:1,2011-09-03T09:00:00Z,26.6493,-81.8810,2.5,5.8,1111122 
SCCF RECON,ioos:station:SCCF:53:1,2011-09-03T10:00:00Z,26.6493,-81.8810,2.55,5.57,1111122 
SCCF RECON,ioos:station:SCCF:53:1,2011-09-03T11:00:00Z,26.6493,-81.8810,2.582,5.17,1111122 
SCCF RECON,ioos:station:SCCF:53:1,2011-09-03T12:00:00Z,26.6493,-81.8810,2.59,5.72,1111122 
SCCF RECON,ioos:station:SCCF:53:1,2011-09-03T13:00:00Z,26.6493,-81.8810,2.54,5.95,1111122 
SCCF RECON,ioos:station:SCCF:53:1,2011-09-03T14:00:00Z,26.6493,-81.8810,2.48,5.69,1111122 
SCCF RECON,ioos:station:SCCF:53:1,2011-09-03T15:00:00Z,26.6493,-81.8810,2.431,5.54,1111122 
SCCF RECON,ioos:station:SCCF:53:1,2011-09-03T16:00:00Z,26.6493,-81.8810,2.371,5.48,1111122 
SCCF RECON,ioos:station:SCCF:53:1,2011-09-03T17:00:00Z,26.6493,-81.8810,2.308,5.5,1111122 
SCCF RECON,ioos:station:SCCF:53:1,2011-09-03T18:00:00Z,26.6493,-81.8810,2.244,5.49,1111122 
SCCF RECON,ioos:station:SCCF:53:1,2011-09-03T19:00:00Z,26.6493,-81.8810,2.192,5.44,1111122 
SCCF RECON,ioos:station:SCCF:53:1,2011-09-03T20:00:00Z,26.6493,-81.8810,2.17,5.42,1111122 
SCCF RECON,ioos:station:SCCF:53:1,2011-09-03T21:00:00Z,26.6493,-81.8810,2.179,5.4,1111122 
SCCF RECON,ioos:station:SCCF:53:1,2011-09-03T22:00:00Z,26.6493,-81.8810,2.249,4.95,1111122 
SCCF RECON,ioos:station:SCCF:53:1,2011-09-03T23:00:00Z,26.6493,-81.8810,2.29,4.93,1111122 
SCCF RECON,ioos:station:SCCF:53:1,2011-09-04T00:00:00Z,26.6493,-81.8810,2.32,4.96,1111122 
SCCF RECON,ioos:station:SCCF:53:1,2011-09-04T01:00:00Z,26.6493,-81.8810,2.369,4.96,1111122 
SCCF RECON,ioos:station:SCCF:53:1,2011-09-04T02:00:00Z,26.6493,-81.8810,2.38,4.99,1111122 
SCCF RECON,ioos:station:SCCF:53:1,2011-09-04T03:00:00Z,26.6493,-81.8810,2.375,4.95,1111122 
SCCF RECON,ioos:station:SCCF:53:1,2011-09-04T04:00:00Z,26.6493,-81.8810,2.37,4.66,1111122 
SCCF RECON,ioos:station:SCCF:53:1,2011-09-04T05:00:00Z,26.6493,-81.8810,2.35,4.41,1111122 
SCCF RECON,ioos:station:SCCF:53:1,2011-09-04T06:00:00Z,26.6493,-81.8810,2.33,4.69,1111122 
SCCF RECON,ioos:station:SCCF:53:1,2011-09-04T07:00:00Z,26.6493,-81.8810,2.34,4.53,1111122 
SCCF RECON,ioos:station:SCCF:53:1,2011-09-04T08:00:00Z,26.6493,-81.8810,2.39,4.37,1111122 
SCCF RECON,ioos:station:SCCF:53:1,2011-09-04T09:00:00Z,26.6493,-81.8810,2.452,4.7,1111122 
SCCF RECON,ioos:station:SCCF:53:1,2011-09-04T10:00:00Z,26.6493,-81.8810,2.52,4.67,1111122 
SCCF RECON,ioos:station:SCCF:53:1,2011-09-04T11:00:00Z,26.6493,-81.8810,2.586,4.5,1111122 
SCCF RECON,ioos:station:SCCF:53:1,2011-09-04T12:00:00Z,26.6493,-81.8810,2.633,4.46,1111122 
SCCF RECON,ioos:station:SCCF:53:1,2011-09-04T13:00:00Z,26.6493,-81.8810,2.66,4.65,1111122 
SCCF RECON,ioos:station:SCCF:53:1,2011-09-04T14:00:00Z,26.6493,-81.8810,2.64,4.48,1111122 
SCCF RECON,ioos:station:SCCF:53:1,2011-09-04T15:00:00Z,26.6493,-81.8810,2.58,4.34,1111122 
SCCF RECON,ioos:station:SCCF:53:1,2011-09-04T16:00:00Z,26.6493,-81.8810,2.519,4.52,1111122 
SCCF RECON,ioos:station:SCCF:53:1,2011-09-04T17:00:00Z,26.6493,-81.8810,2.461,4.88,1111122 
SCCF RECON,ioos:station:SCCF:53:1,2011-09-04T18:00:00Z,26.6493,-81.8810,2.406,5.17,1111122 
SCCF RECON,ioos:station:SCCF:53:1,2011-09-04T19:00:00Z,26.6493,-81.8810,2.34,5.2,1111122 
SCCF RECON,ioos:station:SCCF:53:1,2011-09-04T20:00:00Z,26.6493,-81.8810,2.301,5.12,1111122 
SCCF RECON,ioos:station:SCCF:53:1,2011-09-04T21:00:00Z,26.6493,-81.8810,2.28,5.1,1111122 
SCCF RECON,ioos:station:SCCF:53:1,2011-09-04T22:00:00Z,26.6493,-81.8810,2.302,5.09,1111122 
SCCF RECON,ioos:station:SCCF:53:1,2011-09-04T23:00:00Z,26.6493,-81.8810,2.341,5.21,1111122 
SCCF RECON,ioos:station:SCCF:53:1,2011-09-05T00:00:00Z,26.6493,-81.8810,2.38,6.15,1111122 
SCCF RECON,ioos:station:SCCF:53:1,2011-09-05T01:00:00Z,26.6493,-81.8810,2.43,5.99,1111122 
SCCF RECON,ioos:station:SCCF:53:1,2011-09-05T02:00:00Z,26.6493,-81.8810,2.47,6.04,1111122 
SCCF RECON,ioos:station:SCCF:53:1,2011-09-05T03:00:00Z,26.6493,-81.8810,2.48,5.88,1111122 
SCCF RECON,ioos:station:SCCF:53:1,2011-09-05T04:00:00Z,26.6493,-81.8810,2.49,5.78,1111122 
SCCF RECON,ioos:station:SCCF:53:1,2011-09-05T05:00:00Z,26.6493,-81.8810,2.48,5.57,1111122 
SCCF RECON,ioos:station:SCCF:53:1,2011-09-05T06:00:00Z,26.6493,-81.8810,2.48,5.51,1111122 
SCCF RECON,ioos:station:SCCF:53:1,2011-09-05T07:00:00Z,26.6493,-81.8810,2.46,5.49,1111122 
SCCF RECON,ioos:station:SCCF:53:1,2011-09-05T08:00:00Z,26.6493,-81.8810,2.46,5.49,1111122 
SCCF RECON,ioos:station:SCCF:53:1,2011-09-05T09:00:00Z,26.6493,-81.8810,2.48,5.43,1111122 
SCCF RECON,ioos:station:SCCF:53:1,2011-09-05T10:00:00Z,26.6493,-81.8810,2.54,5.41,1111122 
SCCF RECON,ioos:station:SCCF:53:1,2011-09-05T11:00:00Z,26.6493,-81.8810,2.6,5.29,1111122 
SCCF RECON,ioos:station:SCCF:53:1,2011-09-05T12:00:00Z,26.6493,-81.8810,2.65,4.9,1111122 
SCCF RECON,ioos:station:SCCF:53:1,2011-09-05T13:00:00Z,26.6493,-81.8810,2.694,5.1,1111122 
SCCF RECON,ioos:station:SCCF:53:1,2011-09-05T14:00:00Z,26.6493,-81.8810,2.72,4.96,1111122 
SCCF RECON,ioos:station:SCCF:53:1,2011-09-05T15:00:00Z,26.6493,-81.8810,2.708,5.04,1111122 
SCCF RECON,ioos:station:SCCF:53:1,2011-09-05T16:00:00Z,26.6493,-81.8810,2.671,5.69,1111122 
SCCF RECON,ioos:station:SCCF:53:1,2011-09-05T17:00:00Z,26.6493,-81.8810,2.613,5.83,1111122 
SCCF RECON,ioos:station:SCCF:53:1,2011-09-05T18:00:00Z,26.6493,-81.8810,2.561,5.86,1111122 
SCCF RECON,ioos:station:SCCF:53:1,2011-09-05T19:00:00Z,26.6493,-81.8810,2.503,5.75,1111122 
SCCF RECON,ioos:station:SCCF:53:1,2011-09-05T20:00:00Z,26.6493,-81.8810,2.447,5.85,1111122 
SCCF RECON,ioos:station:SCCF:53:1,2011-09-05T21:00:00Z,26.6493,-81.8810,2.396,5.81,1111122 
SCCF RECON,ioos:station:SCCF:53:1,2011-09-05T22:00:00Z,26.6493,-81.8810,2.363,5.75,1111122 
SCCF RECON,ioos:station:SCCF:53:1,2011-09-05T23:00:00Z,26.6493,-81.8810,2.348,5.72,1111122 
SCCF RECON,ioos:station:SCCF:53:1,2011-09-06T00:00:00Z,26.6493,-81.8810,2.365,5.64,1111122 
SCCF RECON,ioos:station:SCCF:53:1,2011-09-06T01:00:00Z,26.6493,-81.8810,2.412,5.68,1111122 
SCCF RECON,ioos:station:SCCF:53:1,2011-09-06T02:00:00Z,26.6493,-81.8810,2.46,5.6,1111122 
SCCF RECON,ioos:station:SCCF:53:1,2011-09-06T03:00:00Z,26.6493,-81.8810,2.5,5.44,1111122 
SCCF RECON,ioos:station:SCCF:53:1,2011-09-06T04:00:00Z,26.6493,-81.8810,2.54,5.5,1111122 
SCCF RECON,ioos:station:SCCF:53:1,2011-09-06T05:00:00Z,26.6493,-81.8810,2.56,5.73,1111122 
SCCF RECON,ioos:station:SCCF:53:1,2011-09-06T06:00:00Z,26.6493,-81.8810,2.57,5.68,1111122 
SCCF RECON,ioos:station:SCCF:53:1,2011-09-06T07:00:00Z,26.6493,-81.8810,2.572,5.67,1111122 
SCCF RECON,ioos:station:SCCF:53:1,2011-09-06T08:00:00Z,26.6493,-81.8810,2.565,5.53,1111122 
SCCF RECON,ioos:station:SCCF:53:1,2011-09-06T09:00:00Z,26.6493,-81.8810,2.569,5.59,1111122 
SCCF RECON,ioos:station:SCCF:53:1,2011-09-06T10:00:00Z,26.6493,-81.8810,2.601,5.58,1111122 
SCCF RECON,ioos:station:SCCF:53:1,2011-09-06T11:00:00Z,26.6493,-81.8810,2.67,5.65,1111122 
SCCF RECON,ioos:station:SCCF:53:1,2011-09-06T12:00:00Z,26.6493,-81.8810,2.728,5.69,1111122 
SCCF RECON,ioos:station:SCCF:53:1,2011-09-06T13:00:00Z,26.6493,-81.8810,2.782,5.69,1111122 
SCCF RECON,ioos:station:SCCF:53:1,2011-09-06T14:00:00Z,26.6493,-81.8810,2.844,5.8,1111122 
SCCF RECON,ioos:station:SCCF:53:1,2011-09-06T15:00:00Z,26.6493,-81.8810,2.849,5.85,1111122 
SCCF RECON,ioos:station:SCCF:53:1,2011-09-06T16:00:00Z,26.6493,-81.8810,2.834,6.06,1111122 
SCCF RECON,ioos:station:SCCF:53:1,2011-09-06T17:00:00Z,26.6493,-81.8810,2.779,5.97,1111122 
SCCF RECON,ioos:station:SCCF:53:1,2011-09-06T18:00:00Z,26.6493,-81.8810,2.717,6.06,1111122 
SCCF RECON,ioos:station:SCCF:53:1,2011-09-06T19:00:00Z,26.6493,-81.8810,2.67,5.99,1111122 
SCCF RECON,ioos:station:SCCF:53:1,2011-09-06T20:00:00Z,26.6493,-81.8810,2.617,5.95,1111122 
SCCF RECON,ioos:station:SCCF:53:1,2011-09-06T21:00:00Z,26.6493,-81.8810,2.559,5.96,1111122 
SCCF RECON,ioos:station:SCCF:53:1,2011-09-06T22:00:00Z,26.6493,-81.8810,2.501,5.81,1111122 
SCCF RECON,ioos:station:SCCF:53:1,2011-09-06T23:00:00Z,26.6493,-81.8810,2.447,5.78,1111122 
SCCF RECON,ioos:station:SCCF:53:1,2011-09-07T00:00:00Z,26.6493,-81.8810,2.39,5.49,1111122 
SCCF RECON,ioos:station:SCCF:53:1,2011-09-07T01:00:00Z,26.6493,-81.8810,2.36,5.66,1111122 
SCCF RECON,ioos:station:SCCF:53:1,2011-09-07T02:00:00Z,26.6493,-81.8810,2.36,5.35,1111122 
SCCF RECON,ioos:station:SCCF:53:1,2011-09-07T03:00:00Z,26.6493,-81.8810,2.382,5.34,1111122 
SCCF RECON,ioos:station:SCCF:53:1,2011-09-07T04:00:00Z,26.6493,-81.8810,2.43,5.32,1111122 
SCCF RECON,ioos:station:SCCF:53:1,2011-09-07T05:00:00Z,26.6493,-81.8810,2.479,5.55,1111122 
SCCF RECON,ioos:station:SCCF:53:1,2011-09-07T06:00:00Z,26.6493,-81.8810,2.51,5.55,1111122 
SCCF RECON,ioos:station:SCCF:53:1,2011-09-07T07:00:00Z,26.6493,-81.8810,2.51,5.56,1111122 
SCCF RECON,ioos:station:SCCF:53:1,2011-09-07T08:00:00Z,26.6493,-81.8810,2.48,5.32,1111122 
SCCF RECON,ioos:station:SCCF:53:1,2011-09-07T09:00:00Z,26.6493,-81.8810,2.45,5.25,1111122 
SCCF RECON,ioos:station:SCCF:53:1,2011-09-07T10:00:00Z,26.6493,-81.8810,2.44,5.59,1111122 
SCCF RECON,ioos:station:SCCF:53:1,2011-09-07T11:00:00Z,26.6493,-81.8810,2.44,5.74,1111122 
SCCF RECON,ioos:station:SCCF:53:1,2011-09-07T12:00:00Z,26.6493,-81.8810,2.48,5.55,1111122 
SCCF RECON,ioos:station:SCCF:53:1,2011-09-07T13:00:00Z,26.6493,-81.8810,2.56,5.59,1111122 
SCCF RECON,ioos:station:SCCF:53:1,2011-09-07T14:00:00Z,26.6493,-81.8810,2.613,5.52,1111122 
SCCF RECON,ioos:station:SCCF:53:1,2011-09-07T15:00:00Z,26.6493,-81.8810,2.64,5.6,1111122 
SCCF RECON,ioos:station:SCCF:53:1,2011-09-07T16:00:00Z,26.6493,-81.8810,2.639,5.61,1111122 
SCCF RECON,ioos:station:SCCF:53:1,2011-09-07T17:00:00Z,26.6493,-81.8810,2.61,5.48,1111122 
SCCF RECON,ioos:station:SCCF:53:1,2011-09-07T18:00:00Z,26.6493,-81.8810,2.557,5.42,1111122 
SCCF RECON,ioos:station:SCCF:53:1,2011-09-07T19:00:00Z,26.6493,-81.8810,2.511,5.62,1111122 
SCCF RECON,ioos:station:SCCF:53:1,2011-09-07T20:00:00Z,26.6493,-81.8810,2.46,5.57,1111122 
SCCF RECON,ioos:station:SCCF:53:1,2011-09-07T21:00:00Z,26.6493,-81.8810,2.41,5.42,1111122 
SCCF RECON,ioos:station:SCCF:53:1,2011-09-07T22:00:00Z,26.6493,-81.8810,2.362,5.13,1111122 
SCCF RECON,ioos:station:SCCF:53:1,2011-09-07T23:00:00Z,26.6493,-81.8810,2.3,5.04,1111122 
SCCF RECON,ioos:station:SCCF:53:1,2011-09-08T00:00:00Z,26.6493,-81.8810,2.27,4.81,1111122 
SCCF RECON,ioos:station:SCCF:53:1,2011-09-08T01:00:00Z,26.6493,-81.8810,2.24,4.68,1111122 
SCCF RECON,ioos:station:SCCF:53:1,2011-09-08T02:00:00Z,26.6493,-81.8810,2.25,4.7,1111122 
SCCF RECON,ioos:station:SCCF:53:1,2011-09-08T03:00:00Z,26.6493,-81.8810,2.3,4.64,1111122 
SCCF RECON,ioos:station:SCCF:53:1,2011-09-08T04:00:00Z,26.6493,-81.8810,2.35,4.65,1111122 
SCCF RECON,ioos:station:SCCF:53:1,2011-09-08T05:00:00Z,26.6493,-81.8810,2.4,4.75,1111122 
SCCF RECON,ioos:station:SCCF:53:1,2011-09-08T06:00:00Z,26.6493,-81.8810,2.44,4.76,1111122 
SCCF RECON,ioos:station:SCCF:53:1,2011-09-08T07:00:00Z,26.6493,-81.8810,2.45,4.77,1111122 
SCCF RECON,ioos:station:SCCF:53:1,2011-09-08T08:00:00Z,26.6493,-81.8810,2.42,4.77,1111122 
SCCF RECON,ioos:station:SCCF:53:1,2011-09-08T09:00:00Z,26.6493,-81.8810,2.37,4.69,1111122 
SCCF RECON,ioos:station:SCCF:53:1,2011-09-08T10:00:00Z,26.6493,-81.8810,2.33,4.49,1111122 
SCCF RECON,ioos:station:SCCF:53:1,2011-09-08T11:00:00Z,26.6493,-81.8810,2.303,4.52,1111122 
SCCF RECON,ioos:station:SCCF:53:1,2011-09-08T12:00:00Z,26.6493,-81.8810,2.3,4.21,1111122 
SCCF RECON,ioos:station:SCCF:53:1,2011-09-08T13:00:00Z,26.6493,-81.8810,2.36,4.18,1111122 
SCCF RECON,ioos:station:SCCF:53:1,2011-09-08T14:00:00Z,26.6493,-81.8810,2.419,4.34,1111122 
SCCF RECON,ioos:station:SCCF:53:1,2011-09-08T15:00:00Z,26.6493,-81.8810,2.48,4.51,1111122 
SCCF RECON,ioos:station:SCCF:53:1,2011-09-08T16:00:00Z,26.6493,-81.8810,2.548,4.73,1111122 
SCCF RECON,ioos:station:SCCF:53:1,2011-09-08T17:00:00Z,26.6493,-81.8810,2.598,4.81,1111122 
SCCF RECON,ioos:station:SCCF:53:1,2011-09-08T18:00:00Z,26.6493,-81.8810,2.616,4.88,1111122 
SCCF RECON,ioos:station:SCCF:53:1,2011-09-08T19:00:00Z,26.6493,-81.8810,2.572,4.94,1111122 
SCCF RECON,ioos:station:SCCF:53:1,2011-09-08T20:00:00Z,26.6493,-81.8810,2.514,5.01,1111122 
SCCF RECON,ioos:station:SCCF:53:1,2011-09-08T21:00:00Z,26.6493,-81.8810,2.456,4.63,1111122 
SCCF RECON,ioos:station:SCCF:53:1,2011-09-08T22:00:00Z,26.6493,-81.8810,2.39,4.52,1111122 
SCCF RECON,ioos:station:SCCF:53:1,2011-09-08T23:00:00Z,26.6493,-81.8810,2.346,4.45,1111122 
SCCF RECON,ioos:station:SCCF:53:1,2011-09-09T00:00:00Z,26.6493,-81.8810,2.3,4.37,1111122 
SCCF RECON,ioos:station:SCCF:53:1,2011-09-09T01:00:00Z,26.6493,-81.8810,2.26,4.42,1111122 
SCCF RECON,ioos:station:SCCF:53:1,2011-09-09T02:00:00Z,26.6493,-81.8810,2.254,4.35,1111122 
SCCF RECON,ioos:station:SCCF:53:1,2011-09-09T03:00:00Z,26.6493,-81.8810,2.27,4.36,1111122 
SCCF RECON,ioos:station:SCCF:53:1,2011-09-09T04:00:00Z,26.6493,-81.8810,2.3,4.32,1111122 
SCCF RECON,ioos:station:SCCF:53:1,2011-09-09T05:00:00Z,26.6493,-81.8810,2.355,4.36,1111122 
SCCF RECON,ioos:station:SCCF:53:1,2011-09-09T06:00:00Z,26.6493,-81.8810,2.4,4.4,1111122 
SCCF RECON,ioos:station:SCCF:53:1,2011-09-09T07:00:00Z,26.6493,-81.8810,2.43,4.38,1111122 
SCCF RECON,ioos:station:SCCF:53:1,2011-09-09T08:00:00Z,26.6493,-81.8810,2.41,4.44,1111122 
SCCF RECON,ioos:station:SCCF:53:1,2011-09-09T09:00:00Z,26.6493,-81.8810,2.35,4.44,1111122 
SCCF RECON,ioos:station:SCCF:53:1,2011-09-09T10:00:00Z,26.6493,-81.8810,2.31,4.42,1111122 
SCCF RECON,ioos:station:SCCF:53:1,2011-09-09T11:00:00Z,26.6493,-81.8810,2.269,4.33,1111122 
SCCF RECON,ioos:station:SCCF:53:1,2011-09-09T12:00:00Z,26.6493,-81.8810,2.23,4.17,1111122 
SCCF RECON,ioos:station:SCCF:53:1,2011-09-09T13:00:00Z,26.6493,-81.8810,2.22,4.03,1111122 
SCCF RECON,ioos:station:SCCF:53:1,2011-09-09T14:00:00Z,26.6493,-81.8810,2.28,4.04,1111122 
SCCF RECON,ioos:station:SCCF:53:1,2011-09-09T15:00:00Z,26.6493,-81.8810,2.345,4.18,1111122 
SCCF RECON,ioos:station:SCCF:53:1,2011-09-09T16:00:00Z,26.6493,-81.8810,2.4,4.32,1111122 
SCCF RECON,ioos:station:SCCF:53:1,2011-09-09T17:00:00Z,26.6493,-81.8810,2.47,4.4,1111122 
SCCF RECON,ioos:station:SCCF:53:1,2011-09-09T18:00:00Z,26.6493,-81.8810,2.52,4.5,1111122 
SCCF RECON,ioos:station:SCCF:53:1,2011-09-09T19:00:00Z,26.6493,-81.8810,2.532,4.5,1111122 
SCCF RECON,ioos:station:SCCF:53:1,2011-09-09T20:00:00Z,26.6493,-81.8810,2.488,4.56,1111122 
SCCF RECON,ioos:station:SCCF:53:1,2011-09-09T21:00:00Z,26.6493,-81.8810,2.435,4.54,1111122 
SCCF RECON,ioos:station:SCCF:53:1,2011-09-09T22:00:00Z,26.6493,-81.8810,2.386,4.5,1111122 
SCCF RECON,ioos:station:SCCF:53:1,2011-09-09T23:00:00Z,26.6493,-81.8810,2.328,4.55,1111122 
SCCF RECON,ioos:station:SCCF:53:1,2011-09-10T00:00:00Z,26.6493,-81.8810,2.279,4.43,1111122 
SCCF RECON,ioos:station:SCCF:53:1,2011-09-10T01:00:00Z,26.6493,-81.8810,2.23,4.33,1111122 
SCCF RECON,ioos:station:SCCF:53:1,2011-09-10T02:00:00Z,26.6493,-81.8810,2.2,4.35,1111122 
SCCF RECON,ioos:station:SCCF:53:1,2011-09-10T03:00:00Z,26.6493,-81.8810,2.18,4.44,1111122 
SCCF RECON,ioos:station:SCCF:53:1,2011-09-10T04:00:00Z,26.6493,-81.8810,2.22,4.39,1111122 
SCCF RECON,ioos:station:SCCF:53:1,2011-09-10T05:00:00Z,26.6493,-81.8810,2.28,4.42,1111122 
SCCF RECON,ioos:station:SCCF:53:1,2011-09-10T06:00:00Z,26.6493,-81.8810,2.32,4.35,1111122 
SCCF RECON,ioos:station:SCCF:53:1,2011-09-10T07:00:00Z,26.6493,-81.8810,2.361,4.36,1111122 
SCCF RECON,ioos:station:SCCF:53:1,2011-09-10T08:00:00Z,26.6493,-81.8810,2.37,4.42,1111122 
SCCF RECON,ioos:station:SCCF:53:1,2011-09-10T09:00:00Z,26.6493,-81.8810,2.32,4.4,1111122 
SCCF RECON,ioos:station:SCCF:53:1,2011-09-10T10:00:00Z,26.6493,-81.8810,2.27,4.48,1111122 
SCCF RECON,ioos:station:SCCF:53:1,2011-09-10T11:00:00Z,26.6493,-81.8810,2.234,4.47,1111122 
SCCF RECON,ioos:station:SCCF:53:1,2011-09-10T12:00:00Z,26.6493,-81.8810,2.2,4.47,1111122 
SCCF RECON,ioos:station:SCCF:53:1,2011-09-10T13:00:00Z,26.6493,-81.8810,2.181,4.39,1111122 
SCCF RECON,ioos:station:SCCF:53:1,2011-09-10T14:00:00Z,26.6493,-81.8810,2.23,4.29,1111122 
SCCF RECON,ioos:station:SCCF:53:1,2011-09-10T15:00:00Z,26.6493,-81.8810,2.307,4.34,1111122 
SCCF RECON,ioos:station:SCCF:53:1,2011-09-10T16:00:00Z,26.6493,-81.8810,2.362,4.42,1111122 
SCCF RECON,ioos:station:SCCF:53:1,2011-09-10T17:00:00Z,26.6493,-81.8810,2.434,4.36,1111122 
SCCF RECON,ioos:station:SCCF:53:1,2011-09-10T18:00:00Z,26.6493,-81.8810,2.5,4.33,1111122 
SCCF RECON,ioos:station:SCCF:53:1,2011-09-10T19:00:00Z,26.6493,-81.8810,2.531,4.33,1111122 
SCCF RECON,ioos:station:SCCF:53:1,2011-09-10T20:00:00Z,26.6493,-81.8810,2.531,4.24,1111122 
SCCF RECON,ioos:station:SCCF:53:1,2011-09-10T21:00:00Z,26.6493,-81.8810,2.481,4.38,1111122 
SCCF RECON,ioos:station:SCCF:53:1,2011-09-10T22:00:00Z,26.6493,-81.8810,2.421,4.5,1111122 
SCCF RECON,ioos:station:SCCF:53:1,2011-09-10T23:00:00Z,26.6493,-81.8810,2.37,4.64,1111122 
SCCF RECON,ioos:station:SCCF:53:1,2011-09-11T00:00:00Z,26.6493,-81.8810,2.32,4.73,1111122 
SCCF RECON,ioos:station:SCCF:53:1,2011-09-11T01:00:00Z,26.6493,-81.8810,2.278,4.7,1111122 
SCCF RECON,ioos:station:SCCF:53:1,2011-09-11T02:00:00Z,26.6493,-81.8810,2.235,4.64,1111122 
SCCF RECON,ioos:station:SCCF:53:1,2011-09-11T03:00:00Z,26.6493,-81.8810,2.22,4.59,1111122 
SCCF RECON,ioos:station:SCCF:53:1,2011-09-11T04:00:00Z,26.6493,-81.8810,2.26,4.56,1111122 
SCCF RECON,ioos:station:SCCF:53:1,2011-09-11T05:00:00Z,26.6493,-81.8810,2.31,4.57,1111122 
SCCF RECON,ioos:station:SCCF:53:1,2011-09-11T06:00:00Z,26.6493,-81.8810,2.35,4.58,1111122 
SCCF RECON,ioos:station:SCCF:53:1,2011-09-11T07:00:00Z,26.6493,-81.8810,2.41,4.6,1111122 
SCCF RECON,ioos:station:SCCF:53:1,2011-09-11T08:00:00Z,26.6493,-81.8810,2.43,4.58,1111122 
SCCF RECON,ioos:station:SCCF:53:1,2011-09-11T09:00:00Z,26.6493,-81.8810,2.392,4.62,1111122 
SCCF RECON,ioos:station:SCCF:53:1,2011-09-11T10:00:00Z,26.6493,-81.8810,2.347,4.59,1111122 
SCCF RECON,ioos:station:SCCF:53:1,2011-09-11T11:00:00Z,26.6493,-81.8810,2.301,4.53,1111122 
SCCF RECON,ioos:station:SCCF:53:1,2011-09-11T12:00:00Z,26.6493,-81.8810,2.255,4.5,1111122 
SCCF RECON,ioos:station:SCCF:53:1,2011-09-11T13:00:00Z,26.6493,-81.8810,2.217,4.45,1111122 
SCCF RECON,ioos:station:SCCF:53:1,2011-09-11T14:00:00Z,26.6493,-81.8810,2.187,4.36,1111122 
SCCF RECON,ioos:station:SCCF:53:1,2011-09-11T15:00:00Z,26.6493,-81.8810,2.22,4.28,1111122 
SCCF RECON,ioos:station:SCCF:53:1,2011-09-11T16:00:00Z,26.6493,-81.8810,2.29,4.37,1111122 
SCCF RECON,ioos:station:SCCF:53:1,2011-09-11T17:00:00Z,26.6493,-81.8810,2.35,4.46,1111122 
SCCF RECON,ioos:station:SCCF:53:1,2011-09-11T18:00:00Z,26.6493,-81.8810,2.414,4.45,1111122 
SCCF RECON,ioos:station:SCCF:53:1,2011-09-11T19:00:00Z,26.6493,-81.8810,2.476,4.42,1111122 
SCCF RECON,ioos:station:SCCF:53:1,2011-09-11T20:00:00Z,26.6493,-81.8810,2.506,4.37,1111122 
SCCF RECON,ioos:station:SCCF:53:1,2011-09-11T21:00:00Z,26.6493,-81.8810,2.49,4.39,1111122 